Torna al catalogo

OPS 6026

DMSP 4A F1

AttivoMeteoSSO
NORAD 2418·PAYLOAD·🇺🇸 United States

Lanciato Sep 16, 1966 da Vandenberg Space Force Base

Loading…

Prossimi Passaggi (prossime 24 ore)

TLE

AggiornatoSource: Space-Track

Epoca: Sep 14, 2026, 09:55 UTC

1 02418U 66082A   26257.41351338  .00000208  00000-0  68583-4 0  9991
2 02418  98.3543  48.8706 0116357 114.0412 247.3007 14.43943701125162

Traccia OPS 6026 in tempo reale con AllMySat

Download on the App Store